Kenosha, WI

1:00 PM CDT on June 28, 2017 (GMT -0500)
Kenosha Regional

Weather History for KENW - April, 2014

Change the Weather History Date:

Sunday, April 6, 2014

  Actual Average Record
Temperature  
Mean Temperature 42 °F -  
Max Temperature 55 °F 48 °F 83 °F (1991)
Min Temperature 30 °F 32 °F 12 °F (1982)
Degree Days  
Heating Degree Days 22    
Moisture  
Dew Point 27 °F    
Average Humidity 53    
Maximum Humidity 69    
Minimum Humidity 37    
Precipitation  
Precipitation 0.00 in - - ()
Sea Level Pressure  
Sea Level Pressure 30.07 in    
Wind  
Wind Speed 8 mph (South)    
Max Wind Speed 15 mph    
Max Gust Speed 20 mph    
Visibility 10 miles    
Events      
Averages and records for this station are not official NWS values.
T = Trace of Precipitation, MM = Missing Value Source: NWS Daily Summary

Daily Weather History Graph

Daily Weather History Graph

Search for Another Location

Airport or City:

Trip Planner

Search our weather history database for the weather conditions in past years. The results will help you decide how hot, cold, wet, or windy it might be!

Date:

Astronomy

Apr. 06, 2014 Rise Set
Actual Time 6:25 AM CDT 7:23 PM CDT
Civil Twilight 5:56 AM CDT 7:52 PM CDT
Nautical Twilight 5:22 AM CDT 8:26 PM CDT
Astronomical Twilight 4:46 AM CDT 9:02 PM CDT
Moon 11:21 AM CDT (4/6) 1:23 AM CDT (4/6)
Length of Visible Light 13h 55m
Length of Day
12h 58m
Waxing Crescent, 44% of the Moon is Illuminated
Apr 6
Waxing Crescent
Apr 7
First Quarter
Apr 15
Full
Apr 22
Last Quarter
Apr 29
New

Hourly Weather History & Observations

Time (CDT) Temp. Windchill Dew Point Humidity Pressure Visibility Wind Dir Wind Speed Gust Speed Precip Events Conditions
12:53 AM 30.9 °F 25.2 °F 21.0 °F 67% 30.15 in 10.0 mi South 5.8 mph - N/A   Clear
1:53 AM 33.1 °F 27.7 °F 21.9 °F 64% 30.15 in 10.0 mi South 5.8 mph - N/A   Clear
2:53 AM 33.1 °F 27.7 °F 21.9 °F 64% 30.14 in 10.0 mi SSW 5.8 mph - N/A   Clear
3:53 AM 32.0 °F 26.4 °F 21.9 °F 66% 30.13 in 10.0 mi SSW 5.8 mph - N/A   Clear
4:53 AM 30.0 °F 25.2 °F 21.0 °F 69% 30.14 in 10.0 mi SSW 4.6 mph - N/A   Clear
5:53 AM 32.0 °F 24.8 °F 21.0 °F 64% 30.14 in 10.0 mi SSW 8.1 mph - N/A   Clear
6:53 AM 33.1 °F 26.1 °F 21.9 °F 64% 30.16 in 10.0 mi SSW 8.1 mph - N/A   Clear
8:53 AM 44.1 °F 38.1 °F 27.0 °F 51% 30.15 in 10.0 mi SSW 11.5 mph - N/A   Clear
9:53 AM 48.9 °F - 28.9 °F 46% 30.14 in 10.0 mi SSW 12.7 mph - N/A   Clear
10:53 AM 51.1 °F - 30.0 °F 44% 30.13 in 10.0 mi SW 12.7 mph 19.6 mph N/A   Clear
11:53 AM 54.0 °F - 28.9 °F 38% 30.11 in 10.0 mi SSW 13.8 mph 18.4 mph N/A   Clear
12:53 PM 55.0 °F - 28.9 °F 37% 30.08 in 10.0 mi SW 10.4 mph 19.6 mph N/A   Clear
1:53 PM 54.0 °F - 30.9 °F 41% 30.04 in 10.0 mi SSE 12.7 mph - N/A   Clear
2:53 PM 52.0 °F - 30.0 °F 43% 30.01 in 10.0 mi SE 15.0 mph - N/A   Clear
3:53 PM 53.1 °F - 30.0 °F 41% 29.99 in 10.0 mi SE 13.8 mph - N/A   Clear
4:53 PM 51.1 °F - 30.0 °F 44% 29.99 in 10.0 mi SSE 13.8 mph - N/A   Partly Cloudy
5:53 PM 48.9 °F - 30.0 °F 48% 30.00 in 10.0 mi SSE 12.7 mph - N/A   Mostly Cloudy
6:53 PM 48.0 °F - 28.9 °F 48% 30.00 in 10.0 mi SSE 11.5 mph - N/A   Partly Cloudy
7:53 PM 46.0 °F 42.5 °F 28.9 °F 51% 29.97 in 10.0 mi SSE 6.9 mph - N/A   Partly Cloudy
8:53 PM 45.0 °F 41.8 °F 28.9 °F 53% 30.00 in 10.0 mi South 5.8 mph - N/A   Overcast
9:53 PM 41.0 °F 37.1 °F 28.0 °F 60% 29.99 in 10.0 mi South 5.8 mph - N/A   Partly Cloudy
10:53 PM 44.1 °F 40.1 °F 28.0 °F 53% 29.97 in 10.0 mi South 6.9 mph - N/A   Mostly Cloudy
11:53 PM 41.0 °F 38.0 °F 28.0 °F 60% 29.96 in 10.0 mi South 4.6 mph - N/A   Clear